Time,TemperatureF,DewpointF,PressureIn,WindDirection,WindDirectionDegrees,WindSpeedMPH,WindSpeedGustMPH,Humidity,HourlyPrecipIn,Conditions,Clouds,dailyrainin,SoftwareType,DateUTC
2013-10-14 00:07:00,45.0,34.0,30.38,ENE,67,0.0,-999.0,65,-99.99,,,0.00,Acu-Link.com,2013-10-14 05:07:00,
2013-10-14 00:23:00,45.0,33.6,30.38,SE,135,0.0,-999.0,64,-99.99,,,0.00,Acu-Link.com,2013-10-14 05:23:00,
2013-10-14 00:38:00,44.6,33.6,30.38,East,90,0.0,-999.0,65,-99.99,,,0.00,Acu-Link.com,2013-10-14 05:38:00,
2013-10-14 00:54:00,44.2,33.2,30.38,ESE,112,0.0,-999.0,65,-99.99,,,0.00,Acu-Link.com,2013-10-14 05:54:00,
2013-10-14 01:10:00,43.9,32.9,30.39,East,90,0.0,-999.0,65,-99.99,,,0.00,Acu-Link.com,2013-10-14 06:10:00,
2013-10-14 01:25:00,44.6,33.2,30.38,NE,45,0.0,-999.0,64,-99.99,,,0.00,Acu-Link.com,2013-10-14 06:25:00,
2013-10-14 01:40:00,45.0,33.2,30.38,ENE,67,0.0,-999.0,63,-99.99,,,0.00,Acu-Link.com,2013-10-14 06:40:00,
2013-10-14 01:56:00,44.4,33.0,30.39,SSE,157,0.0,-999.0,64,-99.99,,,0.00,Acu-Link.com,2013-10-14 06:56:00,
2013-10-14 02:14:00,44.2,33.6,30.39,SSW,202,0.0,-999.0,66,-99.99,,,0.00,Acu-Link.com,2013-10-14 07:14:00,
2013-10-14 02:29:00,42.8,33.7,30.39,SSE,157,0.0,-999.0,70,-99.99,,,0.00,Acu-Link.com,2013-10-14 07:29:00,
2013-10-14 02:44:00,42.8,33.7,30.39,SE,135,0.0,-999.0,70,-99.99,,,0.00,Acu-Link.com,2013-10-14 07:44:00,
2013-10-14 03:00:00,43.0,33.9,30.39,SE,135,0.0,-999.0,70,-99.99,,,0.00,Acu-Link.com,2013-10-14 08:00:00,
2013-10-14 03:15:00,43.0,34.3,30.39,ESE,112,0.0,-999.0,71,-99.99,,,0.00,Acu-Link.com,2013-10-14 08:15:00,
2013-10-14 03:30:00,43.0,34.6,30.38,SSE,157,0.0,-999.0,72,-99.99,,,0.00,Acu-Link.com,2013-10-14 08:30:00,
2013-10-14 03:45:00,42.6,35.2,30.38,ESE,112,0.0,-999.0,75,-99.99,,,0.00,Acu-Link.com,2013-10-14 08:45:00,
2013-10-14 04:01:00,42.6,35.2,30.38,ESE,112,0.0,-999.0,75,-99.99,,,0.00,Acu-Link.com,2013-10-14 09:01:00,
2013-10-14 04:17:00,42.8,35.4,30.38,ESE,112,0.0,-999.0,75,-99.99,,,0.00,Acu-Link.com,2013-10-14 09:17:00,
2013-10-14 04:32:00,42.4,35.7,30.37,ESE,112,0.0,-999.0,77,-99.99,,,0.00,Acu-Link.com,2013-10-14 09:32:00,
2013-10-14 04:47:00,41.9,35.6,30.37,East,90,0.0,-999.0,78,-99.99,,,0.00,Acu-Link.com,2013-10-14 09:47:00,
2013-10-14 05:02:00,41.2,35.5,30.38,ESE,112,0.0,-999.0,80,-99.99,,,0.00,Acu-Link.com,2013-10-14 10:02:00,
2013-10-14 05:18:00,40.5,35.4,30.37,ESE,112,0.0,-999.0,82,-99.99,,,0.00,Acu-Link.com,2013-10-14 10:18:00,
2013-10-14 05:33:00,40.3,35.6,30.37,East,90,0.0,-999.0,83,-99.99,,,0.00,Acu-Link.com,2013-10-14 10:33:00,
2013-10-14 05:48:00,40.1,35.4,30.38,ESE,112,0.0,-999.0,83,-99.99,,,0.00,Acu-Link.com,2013-10-14 10:48:00,
2013-10-14 06:04:00,39.7,35.6,30.37,East,90,0.0,-999.0,85,-99.99,,,0.00,Acu-Link.com,2013-10-14 11:04:00,
2013-10-14 06:19:00,39.0,35.5,30.38,East,90,0.0,-999.0,87,-99.99,,,0.00,Acu-Link.com,2013-10-14 11:19:00,
2013-10-14 06:34:00,38.3,35.1,30.38,South,180,0.0,-999.0,88,-99.99,,,0.00,Acu-Link.com,2013-10-14 11:34:00,
2013-10-14 06:49:00,37.8,37.3,30.39,East,90,0.0,-999.0,98,-99.99,,,0.00,Acu-Link.com,2013-10-14 11:49:00,
2013-10-14 07:04:00,37.9,37.4,30.38,ESE,112,0.0,-999.0,98,-99.99,,,0.00,Acu-Link.com,2013-10-14 12:04:00,
2013-10-14 07:20:00,37.8,37.3,30.38,SE,135,0.0,-999.0,98,-99.99,,,0.00,Acu-Link.com,2013-10-14 12:20:00,
2013-10-14 07:35:00,38.3,37.8,30.37,East,90,0.0,-999.0,98,-99.99,,,0.00,Acu-Link.com,2013-10-14 12:35:00,
2013-10-14 07:50:00,39.0,38.5,30.36,ESE,112,0.0,-999.0,98,-99.99,,,0.00,Acu-Link.com,2013-10-14 12:50:00,
2013-10-14 08:05:00,39.9,39.4,30.37,ESE,112,0.0,-999.0,98,-99.99,,,0.00,Acu-Link.com,2013-10-14 13:05:00,
2013-10-14 08:21:00,42.4,38.8,30.37,ESE,112,0.0,-999.0,87,-99.99,,,0.00,Acu-Link.com,2013-10-14 13:21:00,
2013-10-14 08:36:00,43.3,39.1,30.37,ESE,112,0.0,-999.0,85,-99.99,,,0.00,Acu-Link.com,2013-10-14 13:36:00,
2013-10-14 08:51:00,46.2,40.4,30.37,South,180,0.0,-999.0,80,-99.99,,,0.00,Acu-Link.com,2013-10-14 13:51:00,
2013-10-14 09:07:00,47.8,41.3,30.37,South,180,0.0,-999.0,78,-99.99,,,0.00,Acu-Link.com,2013-10-14 14:07:00,
2013-10-14 09:22:00,49.6,42.4,30.37,South,180,0.0,-999.0,76,-99.99,,,0.00,Acu-Link.com,2013-10-14 14:22:00,
2013-10-14 09:37:00,51.1,43.5,30.36,SE,135,0.0,-999.0,75,-99.99,,,0.00,Acu-Link.com,2013-10-14 14:37:00,
2013-10-14 09:53:00,53.4,43.9,30.37,ESE,112,0.0,-999.0,70,-99.99,,,0.00,Acu-Link.com,2013-10-14 14:53:00,
2013-10-14 10:08:00,54.3,44.0,30.37,SE,135,0.0,-999.0,68,-99.99,,,0.00,Acu-Link.com,2013-10-14 15:08:00,
2013-10-14 10:23:00,55.6,43.6,30.36,NE,45,0.0,-999.0,64,-99.99,,,0.00,Acu-Link.com,2013-10-14 15:23:00,
2013-10-14 10:39:00,55.9,42.2,30.35,ESE,112,6.3,-999.0,60,-99.99,,,0.00,Acu-Link.com,2013-10-14 15:39:00,
2013-10-14 10:54:00,57.9,43.2,30.34,SSE,157,4.2,-999.0,58,-99.99,,,0.00,Acu-Link.com,2013-10-14 15:54:00,
2013-10-14 11:09:00,57.7,43.5,30.33,ESE,112,4.7,-999.0,59,-99.99,,,0.00,Acu-Link.com,2013-10-14 16:09:00,
2013-10-14 11:24:00,57.7,43.0,30.33,ESE,112,0.0,-999.0,58,-99.99,,,0.00,Acu-Link.com,2013-10-14 16:24:00,
2013-10-14 11:39:00,59.0,43.3,30.32,East,90,7.3,-999.0,56,-99.99,,,0.00,Acu-Link.com,2013-10-14 16:39:00,
2013-10-14 11:55:00,59.5,43.3,30.30,SE,135,2.2,-999.0,55,-99.99,,,0.00,Acu-Link.com,2013-10-14 16:55:00,
2013-10-14 12:10:00,60.4,43.2,30.29,SE,135,0.0,-999.0,53,-99.99,,,0.00,Acu-Link.com,2013-10-14 17:10:00,
2013-10-14 12:25:00,61.0,42.7,30.28,SSE,157,1.7,-999.0,51,-99.99,,,0.00,Acu-Link.com,2013-10-14 17:25:00,
2013-10-14 12:41:00,61.2,42.9,30.27,SSW,202,0.0,-999.0,51,-99.99,,,0.00,Acu-Link.com,2013-10-14 17:41:00,
2013-10-14 12:56:00,61.9,43.1,30.27,SSE,157,0.0,-999.0,50,-99.99,,,0.00,Acu-Link.com,2013-10-14 17:56:00,
2013-10-14 13:11:00,62.2,42.3,30.26,NE,45,0.0,-999.0,48,-99.99,,,0.00,Acu-Link.com,2013-10-14 18:11:00,
2013-10-14 13:27:00,63.0,42.5,30.25,SE,135,0.0,-999.0,47,-99.99,,,0.00,Acu-Link.com,2013-10-14 18:27:00,
2013-10-14 13:42:00,62.6,42.1,30.24,SW,225,0.0,-999.0,47,-99.99,,,0.00,Acu-Link.com,2013-10-14 18:42:00,
2013-10-14 13:57:00,62.8,41.7,30.23,ESE,112,0.0,-999.0,46,-99.99,,,0.00,Acu-Link.com,2013-10-14 18:57:00,
2013-10-14 14:13:00,61.9,41.4,30.22,South,180,0.0,-999.0,47,-99.99,,,0.00,Acu-Link.com,2013-10-14 19:13:00,
2013-10-14 14:28:00,63.0,41.3,30.20,South,180,0.0,-999.0,45,-99.99,,,0.00,Acu-Link.com,2013-10-14 19:28:00,
2013-10-14 14:43:00,64.2,41.8,30.19,ESE,112,0.0,-999.0,44,-99.99,,,0.00,Acu-Link.com,2013-10-14 19:43:00,
2013-10-14 14:59:00,63.9,41.0,30.18,SE,135,0.0,-999.0,43,-99.99,,,0.00,Acu-Link.com,2013-10-14 19:59:00,
2013-10-14 15:14:00,64.6,41.6,30.18,SSE,157,0.0,-999.0,43,-99.99,,,0.00,Acu-Link.com,2013-10-14 20:14:00,
2013-10-14 15:29:00,63.9,41.6,30.17,SSE,157,0.0,-999.0,44,-99.99,,,0.00,Acu-Link.com,2013-10-14 20:29:00,
2013-10-14 15:44:00,64.8,41.8,30.16,SSW,202,0.0,-999.0,43,-99.99,,,0.00,Acu-Link.com,2013-10-14 20:44:00,
2013-10-14 15:59:00,64.9,40.6,30.16,SSE,157,2.7,-999.0,41,-99.99,,,0.00,Acu-Link.com,2013-10-14 20:59:00,
2013-10-14 16:15:00,64.6,41.0,30.15,ESE,112,0.0,-999.0,42,-99.99,,,0.00,Acu-Link.com,2013-10-14 21:15:00,
2013-10-14 16:30:00,65.1,40.8,30.14,ESE,112,0.0,-999.0,41,-99.99,,,0.00,Acu-Link.com,2013-10-14 21:30:00,
2013-10-14 16:45:00,65.5,40.5,30.14,SSW,202,0.0,-999.0,40,-99.99,,,0.00,Acu-Link.com,2013-10-14 21:45:00,
2013-10-14 17:01:00,64.9,39.3,30.14,SSE,157,0.0,-999.0,39,-99.99,,,0.00,Acu-Link.com,2013-10-14 22:01:00,
2013-10-14 17:16:00,65.1,38.9,30.14,ESE,112,0.0,-999.0,38,-99.99,,,0.00,Acu-Link.com,2013-10-14 22:16:00,
2013-10-14 17:31:00,65.7,38.7,30.13,South,180,0.0,-999.0,37,-99.99,,,0.00,Acu-Link.com,2013-10-14 22:31:00,
2013-10-14 17:47:00,64.8,38.6,30.12,SSE,157,0.0,-999.0,38,-99.99,,,0.00,Acu-Link.com,2013-10-14 22:47:00,
2013-10-14 18:02:00,63.5,37.4,30.11,SE,135,0.0,-999.0,38,-99.99,,,0.00,Acu-Link.com,2013-10-14 23:02:00,
2013-10-14 18:17:00,62.2,36.9,30.11,SSW,202,0.0,-999.0,39,-99.99,,,0.00,Acu-Link.com,2013-10-14 23:17:00,
2013-10-14 18:33:00,61.3,37.4,30.11,SSE,157,0.0,-999.0,41,-99.99,,,0.00,Acu-Link.com,2013-10-14 23:33:00,
2013-10-14 18:48:00,60.8,37.0,30.11,South,180,0.0,-999.0,41,-99.99,,,0.00,Acu-Link.com,2013-10-14 23:48:00,
2013-10-14 19:03:00,59.7,37.2,30.10,SSE,157,0.0,-999.0,43,-99.99,,,0.00,Acu-Link.com,2013-10-15 00:03:00,
2013-10-14 19:18:00,59.0,37.1,30.10,South,180,0.0,-999.0,44,-99.99,,,0.00,Acu-Link.com,2013-10-15 00:18:00,
2013-10-14 19:33:00,58.5,37.2,30.09,ESE,112,0.0,-999.0,45,-99.99,,,0.00,Acu-Link.com,2013-10-15 00:33:00,
2013-10-14 19:49:00,58.1,36.9,30.09,SE,135,0.0,-999.0,45,-99.99,,,0.00,Acu-Link.com,2013-10-15 00:49:00,
2013-10-14 20:04:00,57.6,37.0,30.08,ESE,112,0.0,-999.0,46,-99.99,,,0.00,Acu-Link.com,2013-10-15 01:04:00,
2013-10-14 20:19:00,56.8,36.8,30.08,SSE,157,0.0,-999.0,47,-99.99,,,0.00,Acu-Link.com,2013-10-15 01:19:00,
2013-10-14 20:34:00,56.1,37.2,30.08,ESE,112,0.0,-999.0,49,-99.99,,,0.00,Acu-Link.com,2013-10-15 01:34:00,
2013-10-14 20:50:00,56.1,37.2,30.09,SE,135,0.0,-999.0,49,-99.99,,,0.00,Acu-Link.com,2013-10-15 01:50:00,
2013-10-14 21:05:00,55.4,37.6,30.08,SSE,157,0.0,-999.0,51,-99.99,,,0.00,Acu-Link.com,2013-10-15 02:05:00,
2013-10-14 21:20:00,55.4,37.6,30.08,SSE,157,0.0,-999.0,51,-99.99,,,0.00,Acu-Link.com,2013-10-15 02:20:00,
2013-10-14 21:36:00,55.0,37.2,30.07,ESE,112,0.0,-999.0,51,-99.99,,,0.00,Acu-Link.com,2013-10-15 02:36:00,
2013-10-14 21:51:00,54.7,36.9,30.06,ESE,112,0.0,-999.0,51,-99.99,,,0.00,Acu-Link.com,2013-10-15 02:51:00,
2013-10-14 22:06:00,54.7,36.9,30.06,SSE,157,0.0,-999.0,51,-99.99,,,0.00,Acu-Link.com,2013-10-15 03:06:00,
2013-10-14 22:22:00,54.9,35.6,30.05,ESE,112,0.0,-999.0,48,-99.99,,,0.00,Acu-Link.com,2013-10-15 03:22:00,
2013-10-14 22:37:00,55.2,35.3,30.05,SSE,157,0.0,-999.0,47,-99.99,,,0.00,Acu-Link.com,2013-10-15 03:37:00,
2013-10-14 22:52:00,55.0,35.7,30.05,ENE,67,0.0,-999.0,48,-99.99,,,0.00,Acu-Link.com,2013-10-15 03:52:00,
2013-10-14 23:08:00,54.9,36.6,30.04,SSE,157,0.0,-999.0,50,-99.99,,,0.00,Acu-Link.com,2013-10-15 04:08:00,
2013-10-14 23:23:00,54.7,37.4,30.04,ESE,112,0.0,-999.0,52,-99.99,,,0.00,Acu-Link.com,2013-10-15 04:23:00,
2013-10-14 23:38:00,54.7,37.9,30.03,SE,135,0.0,-999.0,53,-99.99,,,0.00,Acu-Link.com,2013-10-15 04:38:00,
2013-10-14 23:54:00,54.3,38.0,30.03,SSW,202,0.0,-999.0,54,-99.99,,,0.00,Acu-Link.com,2013-10-15 04:54:00,